• Em Portugal
  • Lista de países
  • Para 7 dias
  • Temperatura da água
  • Mapas de satélite
  • Mapa do tempo
  • Widgets de tempo
  • user-avatar
    Iniciar Sessão

    Previsão horária em Ali Bayramli

    Hoje, 22 Outubro, Segunda-feira

    Tempo Temperatura Precipitação Vento Pressão Humidade
    00:00 +20°C° 0 mm 2 m/s 759 mmHg 72%
    01:00 +20°C° 0 mm 2 m/s 759 mmHg 72%
    02:00 +20°C° 0 mm 2 m/s 759 mmHg 71%
    03:00 +20°C° 0 mm 1 m/s 759 mmHg 71%
    04:00 +20°C° 0 mm 1 m/s 759 mmHg 71%
    05:00 +20°C° 0 mm 1 m/s 759 mmHg 71%
    06:00 +20°C° 0 mm 1 m/s 759 mmHg 72%
    07:00 +21°C° 0 mm 1 m/s 759 mmHg 66%
    08:00 +22°C° 0 mm 1 m/s 760 mmHg 61%
    09:00 +23°C° 0 mm 1 m/s 760 mmHg 56%
    10:00 +24°C° 0 mm 1 m/s 760 mmHg 53%
    11:00 +25°C° 0 mm 1 m/s 759 mmHg 50%
    12:00 +26°C° 0 mm 2 m/s 759 mmHg 48%
    13:00 +26°C° 0 mm 2 m/s 759 mmHg 46%
    14:00 +27°C° 0 mm 2 m/s 759 mmHg 45%
    15:00 +27°C° 0 mm 2 m/s 759 mmHg 43%
    16:00 +26°C° 0 mm 2 m/s 759 mmHg 45%
    17:00 +25°C° 0 mm 2 m/s 759 mmHg 47%
    18:00 +24°C° 0 mm 2 m/s 759 mmHg 49%
    19:00 +24°C° 0 mm 2 m/s 760 mmHg 50%
    20:00 +23°C° 0 mm 2 m/s 760 mmHg 50%
    21:00 +23°C° 0 mm 2 m/s 760 mmHg 51%
    22:00 +21°C° 0 mm 2 m/s 760 mmHg 51%
    23:00 +21°C° 0 mm 2 m/s 760 mmHg 51%

    Amanhã, 23 Outubro, Terça-feira

    Tempo Temperatura Precipitação Vento Pressão Humidade
    00:00 +20°C° 0 mm 2 m/s 760 mmHg 51%
    01:00 +20°C° 0 mm 2 m/s 760 mmHg 53%
    02:00 +20°C° 0 mm 2 m/s 760 mmHg 55%
    03:00 +19°C° 0 mm 2 m/s 760 mmHg 57%
    04:00 +19°C° 0 mm 2 m/s 760 mmHg 59%
    05:00 +19°C° 0 mm 1 m/s 760 mmHg 62%
    06:00 +19°C° 0 mm 1 m/s 760 mmHg 64%
    07:00 +20°C° 0 mm 1 m/s 760 mmHg 59%
    08:00 +21°C° 0 mm 1 m/s 760 mmHg 54%
    09:00 +23°C° 0 mm 1 m/s 760 mmHg 49%
    10:00 +24°C° 0 mm 1 m/s 760 mmHg 45%
    11:00 +25°C° 0 mm 2 m/s 760 mmHg 41%
    12:00 +26°C° 0 mm 2 m/s 759 mmHg 36%
    13:00 +26°C° 0 mm 2 m/s 759 mmHg 36%
    14:00 +27°C° 0 mm 2 m/s 759 mmHg 36%
    15:00 +27°C° 0 mm 2 m/s 758 mmHg 36%
    16:00 +26°C° 0 mm 2 m/s 758 mmHg 42%
    17:00 +24°C° 0 mm 2 m/s 758 mmHg 48%
    18:00 +23°C° 0 mm 2 m/s 758 mmHg 53%
    19:00 +23°C° 0 mm 2 m/s 759 mmHg 57%
    20:00 +21°C° 0 mm 2 m/s 759 mmHg 62%
    21:00 +21°C° 0 mm 2 m/s 759 mmHg 66%
    22:00 +20°C° 0 mm 2 m/s 759 mmHg 68%
    23:00 +21°C° 0 mm 1 m/s 758 mmHg 70%

    Depois de amanhã, 24 Outubro, Quarta-feira

    Tempo Temperatura Precipitação Vento Pressão Humidade
    00:00 +20°C° 0 mm 1 m/s 758 mmHg 73%
    01:00 +20°C° 0 mm 1 m/s 758 mmHg 74%
    02:00 +20°C° 0 mm 1 m/s 757 mmHg 75%
    03:00 +19°C° 0 mm 1 m/s 757 mmHg 76%
    04:00 +19°C° 0 mm 1 m/s 757 mmHg 77%
    05:00 +19°C° 0 mm 1 m/s 757 mmHg 78%
    06:00 +19°C° 0 mm 1 m/s 756 mmHg 79%
    07:00 +19°C° 0 mm 2 m/s 756 mmHg 72%
    08:00 +20°C° 0 mm 2 m/s 756 mmHg 66%
    09:00 +23°C° 0 mm 2 m/s 756 mmHg 59%
    10:00 +24°C° 0 mm 3 m/s 756 mmHg 52%
    11:00 +25°C° 0 mm 3 m/s 755 mmHg 46%
    12:00 +26°C° 0 mm 4 m/s 754 mmHg 39%
    13:00 +27°C° 0 mm 4 m/s 754 mmHg 37%
    14:00 +27°C° 0 mm 4 m/s 753 mmHg 35%
    15:00 +27°C° 0 mm 4 m/s 752 mmHg 33%
    16:00 +26°C° 0 mm 3 m/s 752 mmHg 35%
    17:00 +25°C° 0 mm 3 m/s 752 mmHg 38%
    18:00 +24°C° 0 mm 3 m/s 752 mmHg 41%
    19:00 +24°C° 0 mm 3 m/s 751 mmHg 43%
    20:00 +22°C° 0 mm 3 m/s 751 mmHg 45%
    21:00 +22°C° 0 mm 3 m/s 751 mmHg 47%
    22:00 +21°C° 0 mm 3 m/s 751 mmHg 47%
    23:00 +21°C° 0 mm 3 m/s 750 mmHg 47%

    25 Outubro, Quinta-feira

    Tempo Temperatura Precipitação Vento Pressão Humidade
    00:00 +20°C° 0 mm 3 m/s 750 mmHg 48%
    01:00 +20°C° 0 mm 4 m/s 749 mmHg 47%
    02:00 +20°C° 0 mm 4 m/s 749 mmHg 46%
    03:00 +20°C° 0 mm 4 m/s 749 mmHg 45%
    04:00 +19°C° 0 mm 4 m/s 749 mmHg 46%
    05:00 +19°C° 0 mm 4 m/s 749 mmHg 46%
    06:00 +19°C° 0 mm 4 m/s 749 mmHg 47%
    07:00 +20°C° 0 mm 5 m/s 749 mmHg 43%
    08:00 +22°C° 0 mm 5 m/s 749 mmHg 39%
    09:00 +24°C° 0 mm 6 m/s 749 mmHg 36%
    10:00 +26°C° 0 mm 6 m/s 748 mmHg 33%
    11:00 +28°C° 0 mm 6 m/s 748 mmHg 30%
    12:00 +29°C° 0 mm 6 m/s 747 mmHg 27%
    13:00 +30°C° 0 mm 5 m/s 747 mmHg 27%
    14:00 +30°C° 0 mm 4 m/s 746 mmHg 27%
    15:00 +32°C° 0 mm 4 m/s 746 mmHg 26%
    16:00 +29°C° 0 mm 3 m/s 746 mmHg 29%
    17:00 +28°C° 0 mm 2 m/s 746 mmHg 32%
    18:00 +26°C° 0 mm 2 m/s 747 mmHg 35%
    19:00 +26°C° 0 mm 2 m/s 747 mmHg 37%
    20:00 +25°C° 0 mm 2 m/s 747 mmHg 39%
    21:00 +25°C° 0 mm 2 m/s 747 mmHg 41%
    22:00 +24°C° 0 mm 2 m/s 748 mmHg 43%
    23:00 +24°C° 0 mm 3 m/s 748 mmHg 46%

    26 Outubro, Sexta-feira

    Tempo Temperatura Precipitação Vento Pressão Humidade
    00:00 +23°C° 0 mm 4 m/s 748 mmHg 48%
    01:00 +22°C° 0 mm 5 m/s 749 mmHg 53%
    02:00 +21°C° 0 mm 6 m/s 749 mmHg 57%
    03:00 +20°C° 0 mm 7 m/s 749 mmHg 61%
    04:00 +18°C° 0 mm 8 m/s 750 mmHg 63%
    05:00 +18°C° 0 mm 9 m/s 751 mmHg 64%
    06:00 +17°C° 0 mm 9 m/s 752 mmHg 65%
    07:00 +18°C° 0 mm 10 m/s 752 mmHg 61%
    08:00 +18°C° 0 mm 10 m/s 753 mmHg 58%
    09:00 +19°C° 0 mm 10 m/s 754 mmHg 55%
    10:00 +19°C° 0 mm 10 m/s 754 mmHg 53%
    11:00 +21°C° 0 mm 10 m/s 754 mmHg 51%
    12:00 +21°C° 0 mm 9 m/s 754 mmHg 49%
    13:00 +21°C° 0 mm 9 m/s 754 mmHg 51%
    14:00 +19°C° 0 mm 9 m/s 754 mmHg 52%
    15:00 +18°C° 0 mm 8 m/s 754 mmHg 54%
    16:00 +18°C° 0 mm 8 m/s 755 mmHg 56%
    17:00 +17°C° 0 mm 8 m/s 756 mmHg 59%
    18:00 +16°C° 0 mm 7 m/s 757 mmHg 61%
    19:00 +16°C° 0.1 mm 7 m/s 758 mmHg 62%
    20:00 +15°C° 0.1 mm 7 m/s 759 mmHg 63%
    21:00 +15°C° 0.1 mm 6 m/s 759 mmHg 64%
    22:00 +14°C° 0.5 mm 6 m/s 760 mmHg 66%
    23:00 +14°C° 0.5 mm 6 m/s 760 mmHg 69%

    27 Outubro, Sábado

    Tempo Temperatura Precipitação Vento Pressão Humidade
    00:00 +14°C° 0.5 mm 6 m/s 761 mmHg 71%
    01:00 +13°C° 1.8 mm 6 m/s 762 mmHg 73%
    02:00 +13°C° 1.8 mm 6 m/s 762 mmHg 75%
    03:00 +11°C° 1.8 mm 6 m/s 763 mmHg 77%
    04:00 +12°C° 1.6 mm 5 m/s 764 mmHg 77%
    05:00 +12°C° 1.6 mm 5 m/s 765 mmHg 77%
    06:00 +12°C° 1.6 mm 4 m/s 766 mmHg 77%
    07:00 +12°C° 0.5 mm 4 m/s 767 mmHg 76%
    08:00 +12°C° 0.5 mm 4 m/s 767 mmHg 75%
    09:00 +13°C° 0.5 mm 3 m/s 768 mmHg 74%
    10:00 +13°C° 0 mm 3 m/s 768 mmHg 69%
    11:00 +14°C° 0 mm 3 m/s 769 mmHg 65%
    12:00 +16°C° 0 mm 3 m/s 769 mmHg 60%
    13:00 +16°C° 0 mm 2 m/s 769 mmHg 57%
    14:00 +17°C° 0 mm 2 m/s 769 mmHg 53%
    15:00 +19°C° 0 mm 1 m/s 769 mmHg 50%
    16:00 +18°C° 0 mm 1 m/s 770 mmHg 53%
    17:00 +16°C° 0 mm 2 m/s 770 mmHg 56%
    18:00 +16°C° 0 mm 2 m/s 771 mmHg 59%
    19:00 +16°C° 0 mm 2 m/s 771 mmHg 60%
    20:00 +15°C° 0 mm 2 m/s 771 mmHg 62%
    21:00 +15°C° 0 mm 2 m/s 771 mmHg 63%
    22:00 +15°C° 0 mm 2 m/s 771 mmHg 65%
    23:00 +14°C° 0 mm 2 m/s 771 mmHg 67%
    Mostrar mais